Location: Baumgarten
(49.0970°N, 12.7493°E)
Time: 17:03:45
(UTC+00:00)

USA 267 - Pass Details

Date: 05 July 2020
Orbit: 1102 x 1106 km, 123.0° (Epoch: 09 August)

Event Time Altitude Azimuth Distance (km) Brightness Sun altitude
Rises 19:47:25 0° 96° (E) 3,917 5.7 -4.8°
Reaches altitude 10° 19:49:56 10° 92° (E) 2,960 5.1 -5.1°
Maximum altitude 19:56:16 55° 17° (NNE) 1,312 3.9 -5.9°
Drops below altitude 10° 20:02:36 10° 302° (WNW) 2,967 7.1 -6.6°
Sets 20:05:08 0° 299° (WNW) 3,926 7.8 -6.9°
